Fairbanks Eiels, AK

3:16 PM AKST on November 21, 2017 (GMT -0900)
Eielson Air Force Base

Weather History for PAEI - May, 2013

Change the Weather History Date:

Tuesday, May 28, 2013

  Actual Average Record
Temperature  
Mean Temperature 62 °F -  
Max Temperature 81 °F 61 °F 83 °F (2011)
Min Temperature 43 °F 39 °F -41 °F (1971)
Degree Days  
Heating Degree Days 3    
Growing Degree Days 12 (Base 50)    
Moisture  
Dew Point 38 °F    
Average Humidity 40    
Maximum Humidity 79    
Minimum Humidity 19    
Precipitation  
Precipitation 0.00 in - - ()
Sea Level Pressure  
Sea Level Pressure 29.72 in    
Wind  
Wind Speed 5 mph (NNE)    
Max Wind Speed 17 mph    
Max Gust Speed -    
Visibility 10 miles    
Events      
Averages and records for this station are not official NWS values.
T = Trace of Precipitation, MM = Missing Value Source: NWS Daily Summary

Daily Weather History Graph

Daily Weather History Graph

Search for Another Location

Airport or City:

Trip Planner

Search our weather history database for the weather conditions in past years. The results will help you decide how hot, cold, wet, or windy it might be!

Date:

Astronomy

May. 28, 2013 Rise Set
Actual Time 3:43 AM AKDT 11:50 PM AKDT
Civil Twilight 2:18 AM AKDT Sun does not rise
Nautical Twilight Sun does not rise Sun does not rise
Astronomical Twilight Sun does not rise Sun does not rise
Moon 1:39 AM AKDT (5/28) 8:44 AM AKDT (5/28)
Length of Visible Light 24h 00m
Length of Day
20h 06m
Waning Gibbous, 81% of the Moon is Illuminated
May 28
Waning Gibbous
May 31
Last Quarter
Jun 8
New
Jun 16
First Quarter
Jun 23
Full

Hourly Weather History & Observations

Time (AKDT) Temp. Windchill Dew Point Humidity Pressure Visibility Wind Dir Wind Speed Gust Speed Precip Events Conditions
12:55 AM 56.7 °F - 41.2 °F 56% 29.75 in 10.0 mi Variable 5.8 mph - N/A   Clear
1:55 AM 51.6 °F - 40.6 °F 66% 29.76 in 10.0 mi SSE 8.1 mph - N/A   Clear
2:55 AM 50.2 °F - 39.2 °F 66% 29.77 in 10.0 mi SSE 6.9 mph - N/A   Clear
3:55 AM 46.2 °F 42.7 °F 38.5 °F 74% 29.77 in 10.0 mi Variable 6.9 mph - N/A   Clear
4:55 AM 43.7 °F - 37.6 °F 79% 29.77 in 10.0 mi Calm Calm - N/A   Clear
5:55 AM 47.7 °F - 37.8 °F 69% 29.78 in 10.0 mi Calm Calm - N/A   Mostly Cloudy
6:55 AM 49.6 °F - 39.4 °F 68% 29.78 in 10.0 mi Calm Calm - N/A   Scattered Clouds
7:55 AM 56.7 °F - 40.5 °F 55% 29.77 in 10.0 mi Calm Calm - N/A   Clear
8:55 AM 65.1 °F - 40.3 °F 40% 29.77 in 10.0 mi Calm Calm - N/A   Clear
9:55 AM 69.1 °F - 37.9 °F 32% 29.76 in 10.0 mi Calm Calm - N/A   Clear
10:55 AM 72.7 °F - 36.9 °F 27% 29.75 in 10.0 mi Calm Calm - N/A   Clear
11:55 AM 75.0 °F - 37.0 °F 25% 29.74 in 10.0 mi Variable 3.5 mph - N/A   Clear
12:55 PM 76.8 °F - 36.5 °F 23% 29.73 in 10.0 mi North 6.9 mph - N/A   Clear
1:55 PM 78.3 °F - 35.8 °F 22% 29.72 in 10.0 mi Calm Calm - N/A   Clear
2:55 PM 79.7 °F - 34.3 °F 19% 29.70 in 10.0 mi North 8.1 mph - N/A   Clear
3:55 PM 79.7 °F - 33.4 °F 19% 29.69 in 10.0 mi Variable 3.5 mph - N/A   Overcast
4:55 PM 79.9 °F - 34.9 °F 20% 29.68 in 10.0 mi SSW 6.9 mph - N/A   Partly Cloudy
5:26 PM 80.6 °F - 37.4 °F 21% 29.68 in 10.0 mi NNE 17.3 mph - N/A   Scattered Clouds
5:55 PM 81.0 °F - 37.8 °F 21% 29.68 in 10.0 mi NE 13.8 mph - N/A   Mostly Cloudy
6:55 PM 80.4 °F - 34.0 °F 19% 29.66 in 10.0 mi NE 5.8 mph - N/A   Clear
7:55 PM 80.1 °F - 34.9 °F 20% 29.66 in 10.0 mi NNE 10.4 mph - N/A   Scattered Clouds
8:55 PM 76.6 °F - 35.6 °F 23% 29.65 in 10.0 mi NNE 8.1 mph - N/A   Overcast
9:55 PM 72.5 °F - 38.5 °F 29% 29.66 in 10.0 mi NNE 3.5 mph - N/A   Overcast
10:55 PM 67.3 °F - 43.3 °F 42% 29.66 in 10.0 mi Calm Calm - N/A   Mostly Cloudy
11:55 PM 60.1 °F - 43.0 °F 53% 29.66 in 10.0 mi NNW 4.6 mph - N/A   Scattered Clouds